Weather History for Hazlehurst, GA

Change the Weather History Date:

Sunday, January 27, 2013

  Actual Average Record
Temperature  
Mean Temperature 50 °F -  
Max Temperature 67 °F 48 °F 72 °F (2014)
Min Temperature 38 °F 26 °F 38 °F (2013)
Degree Days  
Heating Degree Days 16    
Moisture  
Dew Point 43 °F    
Average Humidity 81    
Maximum Humidity 100    
Minimum Humidity 57    
Precipitation  
Precipitation 0.00 in - - ()
Sea Level Pressure  
Sea Level Pressure 30.37 in    
Wind  
Wind Speed 4 mph (East)    
Max Wind Speed 10 mph    
Max Gust Speed -    
Visibility 9 miles    
Events      
Averages and records for this station are not official NWS values.
T = Trace of Precipitation, MM = Missing Value Source: NWS Daily Summary

Daily Weather History Graph

Daily Weather History Graph

Search for Another Location

Airport:

Trip Planner

Search our weather history database for the weather conditions in past years. The results will help you decide how hot, cold, wet, or windy it might be!

Date:

Astronomy

Jan. 27, 2013 Rise Set
Actual Time 7:26 AM EST 6:00 PM EST
Civil Twilight 7:00 AM EST 6:26 PM EST
Nautical Twilight 6:31 AM EST 6:55 PM EST
Astronomical Twilight 6:02 AM EST 7:24 PM EST
Moon 6:47 PM EST (1/27) 7:24 AM EST (1/27)
Length of Visible Light 11h 25m
Length of Day
10h 33m
Full, 100% of the Moon is Illuminated
Jan 27
Full
Feb 3
Last Quarter
Feb 10
New
Feb 17
First Quarter
Feb 25
Full

Hourly Weather History & Observations

Time (EST) Temp. Windchill Dew Point Humidity Pressure Visibility Wind Dir Wind Speed Gust Speed Precip Events Conditions
12:15 AM 40.3 °F - 36.1 °F 85% 30.28 in 10.0 mi Calm Calm - N/A   Clear
12:35 AM 40.3 °F 38.2 °F 36.0 °F 85% 30.28 in 10.0 mi ENE 3.5 mph - N/A   Clear
12:55 AM 40.6 °F 38.6 °F 35.8 °F 83% 30.28 in 10.0 mi ENE 3.5 mph - N/A   Clear
1:15 AM 38.8 °F - 37.0 °F 93% 30.28 in 10.0 mi Calm Calm - N/A   Clear
1:35 AM 38.3 °F - 37.0 °F 95% 30.29 in 10.0 mi Calm Calm - N/A   Clear
1:55 AM 38.5 °F - 37.2 °F 95% 30.29 in 10.0 mi Calm Calm - N/A   Clear
2:15 AM 38.3 °F - 37.8 °F 98% 30.29 in 10.0 mi Calm Calm - N/A   Clear
2:35 AM 38.3 °F 35.9 °F 37.2 °F 96% 30.29 in 10.0 mi East 3.5 mph - N/A   Clear
2:55 AM 41.2 °F - 36.9 °F 85% 30.30 in 10.0 mi Calm Calm - N/A   Clear
3:15 AM 40.8 °F - 37.4 °F 88% 30.31 in 10.0 mi Calm Calm - N/A   Clear
3:35 AM 39.6 °F 36.3 °F 37.4 °F 92% 30.31 in 10.0 mi East 4.6 mph - N/A   Clear
3:55 AM 40.8 °F 36.9 °F 39.0 °F 93% 30.31 in 7.0 mi East 5.8 mph - N/A   Clear
4:15 AM 41.7 °F 38.0 °F 40.8 °F 97% 30.31 in 7.0 mi East 5.8 mph - N/A   Clear
4:35 AM 42.1 °F 38.4 °F 41.9 °F 99% 30.31 in 7.0 mi East 5.8 mph - N/A   Clear
4:55 AM 42.3 °F 37.9 °F 42.4 °F 100% 30.31 in 7.0 mi East 6.9 mph - N/A   Clear
5:15 AM 42.6 °F 40.9 °F 42.8 °F 100% 30.32 in 7.0 mi East 3.5 mph - N/A   Clear
5:35 AM 41.9 °F 38.2 °F 42.3 °F 100% 30.32 in 7.0 mi East 5.8 mph - N/A   Clear
5:55 AM 41.4 °F 38.4 °F 41.7 °F 100% 30.32 in 7.0 mi ENE 4.6 mph - N/A   Clear
6:15 AM 40.8 °F - 41.0 °F 100% 30.33 in 5.0 mi Calm Calm - N/A   Clear
6:35 AM 40.3 °F 37.1 °F 40.3 °F 100% 30.34 in 5.0 mi ENE 4.6 mph - N/A   Mostly Cloudy
6:55 AM 40.1 °F 36.1 °F 40.1 °F 100% 30.35 in 5.0 mi ENE 5.8 mph - N/A   Overcast
7:15 AM 40.1 °F 35.3 °F 40.1 °F 100% 30.36 in 5.0 mi ENE 6.9 mph - N/A   Overcast
7:35 AM 40.1 °F 34.1 °F 40.1 °F 100% 30.36 in 4.0 mi ENE 9.2 mph - N/A   Overcast
7:55 AM 40.1 °F 34.7 °F 40.1 °F 100% 30.37 in 4.0 mi ENE 8.1 mph - N/A   Mostly Cloudy
8:15 AM 40.1 °F 34.7 °F 40.3 °F 100% 30.38 in 5.0 mi ENE 8.1 mph - N/A   Scattered Clouds
8:35 AM 40.5 °F 35.8 °F 40.8 °F 100% 30.39 in 5.0 mi ENE 6.9 mph - N/A   Mostly Cloudy
8:55 AM 41.2 °F 36.0 °F 41.4 °F 100% 30.40 in 7.0 mi ENE 8.1 mph - N/A   Overcast
9:15 AM 42.1 °F 37.1 °F 42.3 °F 100% 30.41 in 7.0 mi East 8.1 mph - N/A   Overcast
9:35 AM 43.2 °F 39.0 °F 43.3 °F 100% 30.42 in 10.0 mi East 6.9 mph - N/A   Overcast
9:55 AM 45.1 °F 40.8 °F 44.2 °F 97% 30.41 in 10.0 mi ENE 8.1 mph - N/A   Mostly Cloudy
10:15 AM 47.5 °F - 44.8 °F 90% 30.42 in 10.0 mi ENE 9.2 mph - N/A   Scattered Clouds
10:35 AM 49.5 °F - 44.8 °F 84% 30.42 in 10.0 mi East 8.1 mph - N/A   Clear
10:55 AM 50.7 °F - 44.8 °F 80% 30.43 in 10.0 mi ENE 6.9 mph - N/A   Clear
11:15 AM 52.5 °F - 45.0 °F 75% 30.43 in 10.0 mi ENE 8.1 mph - N/A   Clear
11:35 AM 53.4 °F - 44.6 °F 72% 30.44 in 10.0 mi NE 4.6 mph - N/A   Clear
11:55 AM 54.0 °F - 44.6 °F 71% 30.42 in 10.0 mi ENE 6.9 mph - N/A   Clear
12:15 PM 54.9 °F - 44.8 °F 69% 30.42 in 10.0 mi ENE 8.1 mph - N/A   Clear
12:35 PM 55.9 °F - 44.8 °F 66% 30.40 in 10.0 mi ENE 9.2 mph - N/A   Clear
12:55 PM 56.7 °F - 44.8 °F 64% 30.39 in 10.0 mi NE 8.1 mph - N/A   Clear
1:15 PM 57.6 °F - 44.8 °F 62% 30.39 in 10.0 mi ENE 9.2 mph - N/A   Clear
1:35 PM 58.1 °F - 45.0 °F 62% 30.38 in 10.0 mi East 8.1 mph - N/A   Clear
1:55 PM 59.0 °F - 45.1 °F 60% 30.38 in 7.0 mi East 8.1 mph - N/A   Clear
2:15 PM 59.7 °F - 45.1 °F 59% 30.37 in 10.0 mi ENE 5.8 mph - N/A   Clear
2:35 PM 60.3 °F - 45.3 °F 58% 30.37 in 10.0 mi East 9.2 mph - N/A   Clear
2:55 PM 60.3 °F - 45.5 °F 58% 30.36 in 10.0 mi East 10.4 mph - N/A   Clear
3:15 PM 60.8 °F - 45.5 °F 57% 30.36 in 10.0 mi East 8.1 mph - N/A   Clear
3:35 PM 61.2 °F - 46.0 °F 58% 30.36 in 10.0 mi East 9.2 mph - N/A   Clear
3:55 PM 61.3 °F - 46.4 °F 58% 30.36 in 10.0 mi East 5.8 mph - N/A   Clear
4:15 PM 61.3 °F - 46.6 °F 58% 30.36 in 10.0 mi East 6.9 mph - N/A   Clear
4:35 PM 60.8 °F - 46.4 °F 59% 30.36 in 10.0 mi East 6.9 mph - N/A   Clear
4:55 PM 60.6 °F - 46.4 °F 59% 30.37 in 10.0 mi East 4.6 mph - N/A   Clear
5:15 PM 59.5 °F - 46.6 °F 62% 30.38 in 10.0 mi East 5.8 mph - N/A   Clear
5:35 PM 58.6 °F - 46.6 °F 64% 30.38 in 10.0 mi East 6.9 mph - N/A   Clear
5:55 PM 57.7 °F - 46.6 °F 66% 30.39 in 10.0 mi East 4.6 mph - N/A   Clear
6:15 PM 56.5 °F - 46.8 °F 70% 30.39 in 10.0 mi East 3.5 mph - N/A   Clear
6:35 PM 55.9 °F - 47.1 °F 72% 30.40 in 10.0 mi East 4.6 mph - N/A   Clear
6:55 PM 54.9 °F - 46.9 °F 75% 30.41 in 10.0 mi East 4.6 mph - N/A   Clear
7:15 PM 54.0 °F - 46.8 °F 77% 30.42 in 10.0 mi East 4.6 mph - N/A   Clear
7:35 PM 53.6 °F - 46.4 °F 77% 30.42 in 10.0 mi East 4.6 mph - N/A   Clear
7:55 PM 53.1 °F - 46.0 °F 77% 30.42 in 10.0 mi East 3.5 mph - N/A   Scattered Clouds
8:15 PM 53.2 °F - 46.0 °F 77% 30.42 in 10.0 mi East 5.8 mph - N/A   Overcast
8:35 PM 53.6 °F - 45.9 °F 75% 30.42 in 10.0 mi East 5.8 mph - N/A   Overcast
9:15 PM 52.7 °F - 44.8 °F 74% 30.42 in 10.0 mi East 6.9 mph - N/A   Overcast
9:35 PM 52.2 °F - 43.7 °F 73% 30.42 in 10.0 mi East 5.8 mph - N/A   Mostly Cloudy
9:55 PM 51.3 °F - 42.8 °F 73% 30.42 in 10.0 mi East 4.6 mph - N/A   Scattered Clouds
10:15 PM 50.4 °F - 42.1 °F 73% 30.42 in 10.0 mi East 4.6 mph - N/A   Scattered Clouds
10:35 PM 50.0 °F - 41.7 °F 73% 30.42 in 10.0 mi East 3.5 mph - N/A   Overcast
10:55 PM 50.0 °F - 41.9 °F 74% 30.42 in 10.0 mi East 4.6 mph - N/A   Overcast
11:15 PM 49.8 °F - 41.7 °F 74% 30.41 in 10.0 mi East 3.5 mph - N/A   Overcast
11:35 PM 49.5 °F - 41.9 °F 75% 30.41 in 10.0 mi Calm Calm - N/A   Overcast
11:55 PM 49.1 °F - 42.1 °F 77% 30.40 in 10.0 mi Calm Calm - N/A   Overcast